Regional Weather Roundup
Issued by NWS State College, PA

Home | Current Version | Previous Version | Graphics & Text | Print | Product List | Glossary Off
Versions: 1 2 3 4 5 6 7 8 9 10 11 12 13 14 15 16 17 18 19 20 21 22 23 24 25 26 27 28 29 30 31 32 33 34 35 36 37 38 39 40 41 42 43 44 45 46 47 48 49 50

920
ASUS41 KCTP 290403
RWRCTP

REGIONAL WEATHER ROUNDUP
NATIONAL WEATHER SERVICE STATE COLLEGE PA
1200 AM EDT FRI APR 29 2016

Note: "fair" indicates few or no clouds below 12,000 feet with no
significant weather and/or obstructions to visibility.

* = STATION THAT DOES NOT REPORT PRECIPITATION /E.G. RAIN...SNOW...ETC/
    THUNDER OR FOG.

PAZ002>004-007>009-013>016-020>023-029>032-290500-
WESTERN PENNSYLVANIA

CITY           SKY/WX    TMP DP  RH WIND       PRES   REMARKS
ERIE           CLOUDY    44  39  82 NE8       29.98F
MEADVILLE      CLOUDY    42  41  96 E7        29.95F
FRANKLIN*      CLOUDY    43  39  87 E7        29.97S
NEW CASTLE     CLOUDY    45  43  93 CALM      29.97R
BEAVER COUNTY  NOT AVBL
BUTLER*        CLOUDY    45  41  87 NE3       29.97S
PITTSBURGH INT DRZL/FOG  47  44  90 N7        29.94S VSB 1
PITTSBURGH     FOG       47  45  93 NW6       29.92S VSB 1/2
INDIANA*       CLOUDY    46  46 100 E8        29.97S FOG
LATROBE        CLOUDY    52  52 100 N5        29.92S
WASHINGTON CO* CLOUDY    48  46  93 N5        29.92F
$$

PAZ004>006-010>012-017>019-024>028-033>037-041-042-045-046-049>053-290500-
CENTRAL PENNSYLVANIA

CITY           SKY/WX    TMP DP  RH WIND       PRES   REMARKS
BRADFORD       CLOUDY    40  38  93 SE6       29.96F
DUBOIS         CLOUDY    40  39  97 E8        29.95S FOG
CLEARFIELD     CLOUDY    42  40  92 E7        29.99S FOG
JOHNSTOWN      FOG       43  39  86 SE7       29.93F VSB 3/4
ALTOONA        CLOUDY    42  40  92 E3        29.99S FOG
STATE COLLEGE  CLOUDY    42  41  97 NE3       30.00S FOG
WILLIAMSPORT   CLOUDY    46  42  86 N3        30.03S
SELINSGROVE    LGT RAIN  46  44  93 CALM      30.04S FOG
FT INDIANTOWN  CLOUDY    44  44 100 NE3       30.04S FOG
CAPITAL CITY   CLOUDY    46  41  82 E9        30.04S
HARRISBURG     CLOUDY    45  41  86 E8        30.03S
YORK           CLOUDY    45  42  89 SE5       30.03S
$$

PAZ038>040-043-044-047-048-054-055-060>062-067>071-290500-
EASTERN PENNSYLVANIA

CITY           SKY/WX    TMP DP  RH WIND       PRES   REMARKS
SCRANTON       CLOUDY    45  43  93 CALM      30.02F
MOUNT POCONO   CLOUDY    42  40  92 CALM      30.01S
ALLENTOWN      CLOUDY    46  41  82 CALM      30.05S
QUAKERTOWN*    CLOUDY    41  41 100 CALM      30.05S
READING        CLOUDY    44  41  89 CALM      30.04S
LANCASTER      CLOUDY    44  43  96 E3        30.03F FOG
COATESVILLE    CLOUDY    43  43 100 CALM      30.04S FOG
POTTSTOWN      CLOUDY    42  42 100 NE3       30.06S FOG
BLUE BELL      CLOUDY    41  41 100 CALM      30.04S
DOYLESTOWN     CLOUDY    42  41  96 N5        30.04S
WILLOW GROVE   NOT AVBL
NORTH PHILA    CLOUDY    45  42  89 E6        30.06F
PHILADELPHIA   CLOUDY    45  41  86 NE6       30.06F
$$




USA.gov is the U.S. government's official web portal to all federal, state and local government web resources and services.